TimeCDT,TemperatureF,Dew PointF,Humidity,Sea Level PressureIn,VisibilityMPH,Wind Direction,Wind SpeedMPH,Gust SpeedMPH,PrecipitationIn,Events,Conditions,WindDirDegrees,DateUTC
12:53 AM,37.9,33.1,83,30.21,7.0,South,9.2,-,N/A,,Clear,180,2014-04-18 05:53:00
1:53 AM,34.0,30.0,85,30.21,6.0,South,6.9,-,N/A,,Clear,170,2014-04-18 06:53:00
2:53 AM,33.1,30.0,89,30.20,5.0,SSW,5.8,-,N/A,,Clear,200,2014-04-18 07:53:00
3:53 AM,33.1,30.0,89,30.19,4.0,South,8.1,-,N/A,,Clear,190,2014-04-18 08:53:00
4:53 AM,32.0,30.0,92,30.19,4.0,SSW,6.9,-,N/A,,Clear,200,2014-04-18 09:53:00
5:53 AM,30.9,28.9,92,30.19,3.0,SW,5.8,-,N/A,,Clear,220,2014-04-18 10:53:00
6:53 AM,30.0,28.0,92,30.19,3.0,South,6.9,-,N/A,,Clear,190,2014-04-18 11:53:00
7:16 AM,30.9,28.0,89,30.20,2.0,South,6.9,-,N/A,,Clear,180,2014-04-18 12:16:00
7:53 AM,33.1,30.9,92,30.19,2.0,South,5.8,-,N/A,,Clear,190,2014-04-18 12:53:00
8:26 AM,37.0,34.0,89,30.20,3.0,South,8.1,-,N/A,,Clear,190,2014-04-18 13:26:00
8:53 AM,41.0,36.0,82,30.17,4.0,SSW,10.4,-,N/A,,Haze,200,2014-04-18 13:53:00
9:53 AM,50.0,37.9,63,30.15,9.0,SW,17.3,-,N/A,,Clear,220,2014-04-18 14:53:00
10:53 AM,55.0,37.9,53,30.13,10.0,SW,20.7,25.3,N/A,,Clear,220,2014-04-18 15:53:00
11:53 AM,61.0,39.9,46,30.11,10.0,SSW,21.9,29.9,N/A,,Clear,200,2014-04-18 16:53:00
12:53 PM,-9999,-9999,N/A,30.15,-9999.0,North,-9999.0,-,N/A,,Unknown,0,2014-04-18 17:53:00
1:53 PM,68.0,39.9,36,30.06,-9999.0,North,-9999.0,-,N/A,,Unknown,0,2014-04-18 18:53:00
2:53 PM,72.0,42.1,34,30.01,-9999.0,North,-9999.0,-,N/A,,Unknown,0,2014-04-18 19:53:00
3:53 PM,75.0,43.0,32,29.98,-9999.0,South,19.6,33.4,N/A,,Clear,190,2014-04-18 20:53:00
4:53 PM,75.9,39.0,26,29.95,-9999.0,South,29.9,36.8,N/A,,Clear,190,2014-04-18 21:53:00
5:53 PM,73.9,39.0,28,29.94,10.0,South,29.9,35.7,N/A,,Clear,190,2014-04-18 22:53:00
6:53 PM,73.4,39.2,29,30.01,10.0,South,21.9,34.5,N/A,,Clear,190,2014-04-18 23:53:00
7:53 PM,69.1,39.9,35,29.94,10.0,South,24.2,33.4,N/A,,Clear,180,2014-04-19 00:53:00
8:53 PM,66.0,39.9,38,29.96,10.0,South,19.6,-,N/A,,Clear,190,2014-04-19 01:53:00
9:53 PM,62.6,39.2,42,30.05,10.0,South,15.0,-,N/A,,Clear,190,2014-04-19 02:53:00
10:53 PM,62.1,42.1,48,29.96,10.0,South,19.6,-,N/A,,Clear,190,2014-04-19 03:53:00
11:53 PM,60.1,43.0,53,29.95,10.0,South,18.4,-,N/A,,Clear,180,2014-04-19 04:53:00